Regional Weather Roundup
Issued by NWS

Home | Current Version | Previous Version | Text Only | Print | Product List | Glossary On
Versions: 1 2 3 4 5 6 7 8 9 10 11 12 13 14 15 16 17 18 19 20 21 22 23 24 25 26 27 28 29 30 31 32 33 34 35 36 37 38 39 40 41 42 43 44 45 46 47 48 49 50
000
ASUS44 KLIX 251813
RWRLA
LOUISIANA WEATHER ROUNDUP
NATIONAL WEATHER SERVICE NEW ORLEANS LA
100 PM CDT SAT MAR 25 2017

NOTE: "FAIR" INDICATES FEW OR NO CLOUDS BELOW 12,000 FEET WITH NO
      SIGNIFICANT WEATHER AND/OR OBSTRUCTIONS TO VISIBILITY.
      SKY/WX - SKY CONDITION AND SIGNIFICANT WEATHER.
      TMP - AIR TEMPERATURE.    DP   - DEWPOINT TEMPERATURE.
      RH  - RELATIVE HUMIDITY.  PRES - PRESSURE.
      HX  - HEAT INDEX.         WCI  - WIND CHILL INDEX.

*  THESE STATIONS ARE NOT NWS OR FAA STATIONS AND ARE NOT UNDER
   NWS QUALITY CONTROL.

LAZ040-048-061>063-065-066-069-251900-
SOUTHEAST LOUISIANA

CITY           SKY/WX    TMP DP  RH WIND       PRES   REMARKS
N.O. INTL ARPT PTSUNNY   81  66  60 S16G29    30.04S
6HR MIN TEMP:  70; 6HR MAX TEMP:  81;

N.O. LAKEFRONT TSTM      76  68  76 S22G30    30.04F
6HR MIN TEMP:  70; 6HR MAX TEMP:  81; 6HR PCP:  0.07;

N.O. DOWNTOWN* LGT RAIN  76  69  79 S10G23    30.05S
6HR MIN TEMP:  70; 6HR MAX TEMP:  78;

RESERVE*       CLOUDY    69  58  68 W14G36    30.10R
6HR MIN TEMP:  69; 6HR MAX TEMP:  81;

SLIDELL        TSTM      74  69  85 S10G25    30.02F
6HR MIN TEMP:  69; 6HR MAX TEMP:  78; 6HR PCP:  0.11;

BATON ROUGE    LGT RAIN  63  59  87 S17       30.08F
6HR MIN TEMP:  61; 6HR MAX TEMP:  69; 6HR PCP:  0.54;

BOOTHVILLE     FAIR      77  70  79 S18G29    30.08F
6HR MIN TEMP:  66; 6HR MAX TEMP:  77; 6HR PCP: TRACE;

BELLE CHASSE   PTSUNNY   79  69  71 S25       30.05F THUNDER
BOGALUSA*      NOT AVBL
GALLIANO*      CLOUDY    78  67  68 S18G28    30.07S
6HR MIN TEMP:  70; 6HR MAX TEMP:  80;

NEW ROADS*     MOCLDY    65  58  80 S12G20    30.01F
6HR MIN TEMP:  59; 6HR MAX TEMP:  70; 6HR PCP:  0.05;

GONZALES*      TSTM      62  60  93 NW5       30.11R
6HR MIN TEMP:  62; 6HR MAX TEMP:  77; 6HR PCP:  0.77;

HAMMOND*       TSTM      64  59  82 W15G22    30.09R
HOUMA*         PTSUNNY   75  70  83 S16G23    30.06F
PORT FOURCHON* MOCLDY    77  70  78 S15G21    30.07S

$$

LAZ041-044-053-054-251900-
SOUTHWEST LOUISIANA

CITY           SKY/WX    TMP DP  RH WIND       PRES   REMARKS
LAKE CHARLES   FAIR      70  64  81 S10G20    30.02S
6HR MIN TEMP:  58; 6HR MAX TEMP:  71; 6HR PCP:  0.34;

LAFAYETTE      FAIR      67  61  81 S8        30.04F
6HR MIN TEMP:  63; 6HR MAX TEMP:  76; 6HR PCP:  0.06;

PATTERSON        N/A    N/A N/A N/A MISG        N/A  THUNDER
SALT POINT       N/A     62  60  93 NW7       30.09R
6HR MIN TEMP:  62; 6HR MAX TEMP:  75;

NEW IBERIA     FAIR      65  60  84 S9        30.06F
6HR MIN TEMP:  62; 6HR MAX TEMP:  75; 6HR PCP:  0.65;

CHENAULT AIRPK NOT AVBL

$$

LAZ027-028-251900-
CENTRAL LOUISIANA

CITY           SKY/WX    TMP DP  RH WIND       PRES   REMARKS
FORT POLK      PTSUNNY   71  62  71 W10       29.99F
6HR MIN TEMP:  60; 6HR MAX TEMP:  71; 6HR PCP:  0.13;

ALEXANDRIA INT LGT RAIN  71  60  68 W10       29.98S
6HR MIN TEMP:  58; 6HR MAX TEMP:  71; 6HR PCP: TRACE;

ALEXANDRIA     FAIR      74  59  59 W13       29.98S
6HR MIN TEMP:  59; 6HR MAX TEMP:  76;


$$

LAZ001-002-251900-
NORTHWEST LOUISIANA

CITY           SKY/WX    TMP DP  RH WIND       PRES   REMARKS
SHREVEPORT     FAIR      73  50  44 W9G22     29.98S
6HR MIN TEMP:  62; 6HR MAX TEMP:  73;

BARKSDALE AFB  FAIR      70  51  50 W6        29.98S
6HR MIN TEMP:  62; 6HR MAX TEMP:  70;

DTN SHREVEPORT FAIR      69  52  54 SW9       29.98F
6HR MIN TEMP:  63; 6HR MAX TEMP:  70;


$$

LAZ014-016-251900-
NORTHEAST LOUISIANA

CITY           SKY/WX    TMP DP  RH WIND       PRES   REMARKS
MONROE         PTSUNNY   70  61  73 SW8       29.96F
6HR MIN TEMP:  61; 6HR MAX TEMP:  70; 6HR PCP: TRACE;

TALLULAH       CLOUDY    71  63  75 W8        29.96S
6HR MIN TEMP:  59; 6HR MAX TEMP:  74;


$$




USA.gov is the U.S. government's official web portal to all federal, state and local government web resources and services.